sat.trackr.live / text

‹ back to catalog

STARLINK-3578

NORAD 51868 · 2022-022S

PAYLOAD ACTIVE UNKNOWN

§ Identity

Operator
Country
US
Launch date
2022-03-03
Launch site
AFETR
Launch vehicle
Mass (kg)
RCS (m²)

Purposes: comms

External: N2YO · Heavens-Above · Gunter

§ Orbital elements

Epoch: 2026-09-19T11:18:54.654624Z

Period
93.79 min
Inclination
53.1607°
Eccentricity
0.0001309
Mean motion
15.35403750 rev/d
Perigee alt
458.8 km
Apogee alt
460.6 km
Semi-major
6,837.9 km
B*
3.1236e-5
RAAN
208.1991°
Arg perigee
87.8209°
Mean anomaly
272.2944°
Rev number
25,251

§ Raw data

STARLINK-35781 51868U 22022S   26262.47146591  .00000709  00000+0  31236-4 0  99952 51868  53.1607 208.1991 0001309  87.8209 272.2944 15.35403750252517

JSON: /api/v1/satellites/51868 · /tle

For live sub-satellite position, see the globe view (requires WebGL).

§ Visibility from observer

Set your observer location to see the next 7 days of passes ≥ 10°. The values pass through the URL so the page stays shareable.

No JS? Fill the form by hand. The geolocation button needs JavaScript.